TimeCDT,TemperatureF,Dew PointF,Humidity,Sea Level PressureIn,VisibilityMPH,Wind Direction,Wind SpeedMPH,Gust SpeedMPH,PrecipitationIn,Events,Conditions,WindDirDegrees,DateUTC
12:13 AM,42.8,39.2,87,29.36,10.0,NNW,3.5,-,N/A,,Clear,340,2012-10-19 05:13:00
12:33 AM,42.8,39.2,87,29.37,10.0,NNW,4.6,-,N/A,,Clear,330,2012-10-19 05:33:00
12:53 AM,41.0,39.2,93,29.37,10.0,NNW,3.5,-,N/A,,Clear,330,2012-10-19 05:53:00
1:13 AM,41.0,39.2,93,29.38,10.0,NNW,5.8,-,N/A,,Clear,330,2012-10-19 06:13:00
1:15 AM,41.0,37.4,87,29.38,10.0,NNW,4.6,-,N/A,,Clear,330,2012-10-19 06:15:00
1:33 AM,39.2,37.4,93,29.38,7.0,NW,4.6,-,N/A,,Clear,310,2012-10-19 06:33:00
1:53 AM,39.2,37.4,93,29.39,7.0,NW,3.5,-,0.01,,Clear,320,2012-10-19 06:53:00
1:55 AM,37.4,35.6,93,29.39,5.0,NW,3.5,-,0.01,,Clear,320,2012-10-19 06:55:00
2:13 AM,37.4,35.6,93,29.39,2.0,NW,4.6,-,N/A,,Scattered Clouds,320,2012-10-19 07:13:00
2:15 AM,35.6,35.6,100,29.39,1.5,NW,4.6,-,N/A,,Mist,320,2012-10-19 07:15:00
2:33 AM,37.4,35.6,93,29.40,0.8,NW,4.6,-,N/A,,Mist,320,2012-10-19 07:33:00
2:35 AM,35.6,33.8,93,29.40,1.0,NW,5.8,-,N/A,,Mist,320,2012-10-19 07:35:00
2:53 AM,37.4,37.4,100,29.40,1.2,NNW,5.8,-,N/A,,Mostly Cloudy,340,2012-10-19 07:53:00
2:55 AM,37.4,35.6,93,29.40,1.0,NNW,5.8,-,N/A,,Overcast,330,2012-10-19 07:55:00
3:13 AM,37.4,35.6,93,29.41,1.0,NNW,4.6,-,N/A,,Overcast,330,2012-10-19 08:13:00
3:15 AM,35.6,35.6,100,29.41,1.2,NNW,5.8,-,N/A,,Mostly Cloudy,340,2012-10-19 08:15:00
3:53 AM,37.4,37.4,100,29.42,0.2,NNW,5.8,-,N/A,Snow,Snow,330,2012-10-19 08:53:00
3:55 AM,37.4,35.6,93,29.42,0.2,NW,5.8,-,N/A,Snow,Snow,320,2012-10-19 08:55:00
4:13 AM,37.4,37.4,100,29.43,0.5,NNW,5.8,-,N/A,Fog,Fog,330,2012-10-19 09:13:00
4:15 AM,37.4,35.6,93,29.43,0.5,NW,4.6,-,N/A,Fog,Fog,320,2012-10-19 09:15:00
4:35 AM,37.4,35.6,93,29.43,1.8,NW,5.8,-,N/A,,Overcast,320,2012-10-19 09:35:00
4:53 AM,39.2,37.4,93,29.44,7.0,NW,4.6,-,N/A,,Overcast,310,2012-10-19 09:53:00
4:55 AM,37.4,35.6,93,29.44,7.0,NW,4.6,-,N/A,,Overcast,320,2012-10-19 09:55:00
5:13 AM,39.2,37.4,93,29.45,10.0,NW,6.9,-,N/A,,Mostly Cloudy,310,2012-10-19 10:13:00
5:15 AM,37.4,35.6,93,29.45,10.0,NW,6.9,-,N/A,,Mostly Cloudy,310,2012-10-19 10:15:00
5:33 AM,39.2,37.4,93,29.45,10.0,NW,4.6,-,N/A,,Scattered Clouds,320,2012-10-19 10:33:00
5:35 AM,37.4,35.6,93,29.45,10.0,NW,4.6,-,N/A,,Scattered Clouds,310,2012-10-19 10:35:00
5:53 AM,37.4,35.6,93,29.46,10.0,NNW,3.5,-,N/A,,Clear,330,2012-10-19 10:53:00
5:55 AM,37.4,35.6,93,29.46,10.0,NNW,3.5,-,N/A,,Clear,330,2012-10-19 10:55:00
6:13 AM,39.2,37.4,93,29.46,10.0,NNW,3.5,-,N/A,,Clear,340,2012-10-19 11:13:00
6:15 AM,37.4,35.6,93,29.46,10.0,NNW,4.6,-,N/A,,Clear,340,2012-10-19 11:15:00
6:33 AM,39.2,37.4,93,29.48,10.0,NW,5.8,-,N/A,,Clear,320,2012-10-19 11:33:00
6:35 AM,37.4,37.4,100,29.48,10.0,NW,6.9,-,N/A,,Clear,310,2012-10-19 11:35:00
6:53 AM,39.2,37.4,93,29.47,10.0,NNW,3.5,-,N/A,,Clear,330,2012-10-19 11:53:00
6:55 AM,39.2,37.4,93,29.47,10.0,NNW,3.5,-,N/A,,Clear,330,2012-10-19 11:55:00
7:13 AM,39.2,39.2,100,29.48,10.0,NNW,5.8,-,N/A,,Clear,340,2012-10-19 12:13:00
7:15 AM,41.0,37.4,87,29.48,10.0,North,6.9,-,N/A,,Clear,350,2012-10-19 12:15:00
7:33 AM,41.0,39.2,93,29.49,10.0,NW,4.6,-,N/A,,Clear,320,2012-10-19 12:33:00
7:35 AM,41.0,37.4,87,29.49,10.0,NW,5.8,-,N/A,,Clear,320,2012-10-19 12:35:00
7:53 AM,41.0,39.2,93,29.50,10.0,NNW,4.6,-,N/A,,Clear,330,2012-10-19 12:53:00
7:55 AM,41.0,37.4,87,29.50,10.0,NW,4.6,-,N/A,,Clear,320,2012-10-19 12:55:00
8:13 AM,42.8,39.2,87,29.52,10.0,NW,6.9,-,N/A,,Clear,310,2012-10-19 13:13:00
8:15 AM,41.0,39.2,93,29.52,10.0,NW,6.9,-,N/A,,Clear,310,2012-10-19 13:15:00
8:53 AM,42.8,41.0,93,29.53,10.0,NW,6.9,-,N/A,,Clear,320,2012-10-19 13:53:00
8:55 AM,42.8,41.0,93,29.53,10.0,NW,6.9,-,N/A,,Clear,320,2012-10-19 13:55:00
9:13 AM,44.6,41.0,87,29.53,10.0,North,9.2,-,N/A,,Clear,360,2012-10-19 14:13:00
9:15 AM,44.6,41.0,87,29.53,10.0,North,9.2,-,N/A,,Clear,350,2012-10-19 14:15:00
9:33 AM,46.4,41.0,81,29.54,10.0,North,10.4,-,N/A,,Scattered Clouds,360,2012-10-19 14:33:00
9:35 AM,44.6,41.0,87,29.54,10.0,North,10.4,-,N/A,,Scattered Clouds,360,2012-10-19 14:35:00
9:53 AM,46.4,39.2,76,29.54,10.0,North,8.1,-,N/A,,Scattered Clouds,360,2012-10-19 14:53:00
9:55 AM,44.6,39.2,81,29.54,10.0,North,10.4,-,N/A,,Scattered Clouds,10,2012-10-19 14:55:00
10:13 AM,46.4,39.2,76,29.54,10.0,North,8.1,-,N/A,,Clear,10,2012-10-19 15:13:00
10:15 AM,46.4,41.0,81,29.54,10.0,North,9.2,-,N/A,,Scattered Clouds,350,2012-10-19 15:15:00
10:35 AM,46.4,41.0,81,29.55,10.0,North,9.2,-,N/A,,Clear,350,2012-10-19 15:35:00
10:53 AM,48.2,39.2,71,29.55,10.0,North,8.1,-,N/A,,Clear,350,2012-10-19 15:53:00
10:55 AM,46.4,39.2,76,29.56,10.0,NNW,9.2,-,N/A,,Clear,340,2012-10-19 15:55:00
11:13 AM,48.2,39.2,71,29.57,10.0,NNW,9.2,-,N/A,,Clear,340,2012-10-19 16:13:00
11:15 AM,48.2,39.2,71,29.57,10.0,NNW,8.1,-,N/A,,Clear,340,2012-10-19 16:15:00
11:33 AM,48.2,39.2,71,29.57,10.0,NNW,10.4,-,N/A,,Clear,340,2012-10-19 16:33:00
11:35 AM,48.2,37.4,66,29.57,10.0,NNW,8.1,-,N/A,,Clear,330,2012-10-19 16:35:00
11:53 AM,48.2,39.2,71,29.58,10.0,NNW,8.1,-,N/A,,Clear,330,2012-10-19 16:53:00
11:55 AM,46.4,37.4,71,29.58,10.0,NW,6.9,-,N/A,,Clear,320,2012-10-19 16:55:00
12:15 PM,48.2,37.4,66,29.58,10.0,NNW,5.8,-,N/A,,Clear,330,2012-10-19 17:15:00
12:32 PM,48.2,42.8,82,29.58,10.0,West,10.4,-,N/A,,Clear,280,2012-10-19 17:32:00
12:35 PM,46.4,41.0,81,29.58,10.0,West,10.4,-,N/A,Rain,Light Rain,280,2012-10-19 17:35:00
12:52 PM,46.4,44.6,93,29.58,4.0,WNW,8.1,-,N/A,Rain,Light Rain,290,2012-10-19 17:52:00
12:55 PM,46.4,42.8,87,29.58,4.0,WNW,9.2,-,N/A,Rain,Light Rain,290,2012-10-19 17:55:00
1:12 PM,46.4,44.6,93,29.58,7.0,WNW,8.1,-,N/A,Rain,Light Rain,290,2012-10-19 18:12:00
1:15 PM,46.4,42.8,87,29.58,7.0,WNW,8.1,-,N/A,Rain,Light Rain,290,2012-10-19 18:15:00
1:32 PM,46.4,44.6,93,29.58,7.0,WNW,9.2,-,0.01,Rain,Rain,300,2012-10-19 18:32:00
1:35 PM,46.4,42.8,87,29.58,7.0,WNW,10.4,-,0.01,Rain,Light Rain,300,2012-10-19 18:35:00
2:12 PM,46.4,44.6,93,29.58,5.0,WNW,9.2,-,0.01,Rain,Light Rain,290,2012-10-19 19:12:00
2:15 PM,46.4,42.8,87,29.58,5.0,WNW,6.9,-,0.01,Rain,Light Rain,290,2012-10-19 19:15:00
2:32 PM,46.4,44.6,93,29.59,7.0,West,8.1,-,0.01,Rain,Rain,280,2012-10-19 19:32:00
2:35 PM,46.4,42.8,87,29.59,7.0,West,8.1,-,0.01,Rain,Light Rain,280,2012-10-19 19:35:00
2:52 PM,46.4,44.6,93,29.59,4.0,WNW,6.9,-,0.03,Rain,Light Rain,300,2012-10-19 19:52:00
2:55 PM,46.4,42.8,87,29.59,5.0,WNW,5.8,-,0.03,Rain,Light Rain,300,2012-10-19 19:55:00
3:12 PM,46.4,42.8,87,29.59,7.0,WNW,4.6,-,0.01,Rain,Light Rain,290,2012-10-19 20:12:00
3:15 PM,46.4,42.8,87,29.59,7.0,WNW,5.8,-,0.01,Rain,Light Rain,300,2012-10-19 20:15:00
3:32 PM,46.4,44.6,93,29.59,3.0,West,5.8,-,0.01,Rain,Light Rain,280,2012-10-19 20:32:00
4:12 PM,46.4,44.6,93,29.60,10.0,WNW,5.8,-,N/A,,Scattered Clouds,290,2012-10-19 21:12:00
4:15 PM,46.4,42.8,87,29.60,10.0,WNW,4.6,-,N/A,Rain,Light Rain,290,2012-10-19 21:15:00
4:32 PM,46.4,44.6,93,29.61,3.0,North,3.5,-,0.01,Rain,Rain,360,2012-10-19 21:32:00
4:35 PM,44.6,42.8,93,29.61,3.0,Calm,Calm,-,0.01,Rain,Rain,0,2012-10-19 21:35:00
4:52 PM,46.4,44.6,93,29.61,4.0,Calm,Calm,-,0.02,,Drizzle,0,2012-10-19 21:52:00
4:55 PM,44.6,42.8,93,29.61,5.0,North,3.5,-,0.02,,Drizzle,360,2012-10-19 21:55:00
5:12 PM,46.4,44.6,93,29.62,10.0,North,5.8,-,N/A,,Scattered Clouds,360,2012-10-19 22:12:00
5:15 PM,44.6,42.8,93,29.62,10.0,North,4.6,-,N/A,,Scattered Clouds,360,2012-10-19 22:15:00
5:52 PM,46.4,42.8,87,29.63,10.0,North,4.6,-,N/A,,Clear,350,2012-10-19 22:52:00
5:55 PM,46.4,42.8,87,29.63,10.0,North,4.6,-,N/A,,Clear,350,2012-10-19 22:55:00
6:12 PM,46.4,42.8,87,29.64,10.0,North,3.5,-,N/A,,Clear,10,2012-10-19 23:12:00
6:15 PM,44.6,42.8,93,29.64,10.0,North,3.5,-,N/A,,Clear,10,2012-10-19 23:15:00
6:52 PM,46.4,42.8,87,29.66,10.0,Calm,Calm,-,N/A,,Clear,0,2012-10-19 23:52:00
6:55 PM,44.6,42.8,93,29.66,10.0,Calm,Calm,-,N/A,,Clear,0,2012-10-19 23:55:00
7:13 PM,44.6,42.8,93,29.67,10.0,Calm,Calm,-,N/A,,Clear,0,2012-10-20 00:13:00
7:15 PM,44.6,42.8,93,29.67,10.0,Calm,Calm,-,N/A,,Clear,0,2012-10-20 00:15:00
7:35 PM,44.6,42.8,93,29.68,10.0,Calm,Calm,-,N/A,,Clear,0,2012-10-20 00:35:00
7:53 PM,44.6,42.8,93,29.68,10.0,Calm,Calm,-,N/A,,Clear,0,2012-10-20 00:53:00
7:55 PM,44.6,42.8,93,29.68,10.0,Calm,Calm,-,N/A,,Clear,0,2012-10-20 00:55:00
8:13 PM,44.6,42.8,93,29.69,7.0,NW,3.5,-,N/A,,Clear,320,2012-10-20 01:13:00
8:15 PM,42.8,41.0,93,29.69,7.0,NW,4.6,-,N/A,,Clear,320,2012-10-20 01:15:00
8:33 PM,41.0,39.2,93,29.69,7.0,NW,4.6,-,N/A,,Clear,320,2012-10-20 01:33:00
8:35 PM,41.0,37.4,87,29.69,7.0,NW,4.6,-,N/A,,Clear,320,2012-10-20 01:35:00
9:13 PM,39.2,37.4,93,29.70,4.0,West,4.6,-,N/A,,Clear,280,2012-10-20 02:13:00
9:15 PM,37.4,35.6,93,29.71,4.0,WNW,4.6,-,N/A,,Clear,290,2012-10-20 02:15:00
9:33 PM,37.4,37.4,100,29.71,1.0,WNW,5.8,-,N/A,,Mist,300,2012-10-20 02:33:00
9:53 PM,37.4,37.4,100,29.71,1.0,NW,4.6,-,N/A,,Mist,320,2012-10-20 02:53:00
10:13 PM,37.4,35.6,93,29.72,0.5,NW,5.8,-,N/A,Fog,Fog,320,2012-10-20 03:13:00
10:33 PM,37.4,35.6,93,29.72,1.2,NNW,3.5,-,N/A,,Scattered Clouds,330,2012-10-20 03:33:00
10:53 PM,37.4,35.6,93,29.72,0.5,NW,5.8,-,N/A,Fog,Fog,320,2012-10-20 03:53:00
11:13 PM,35.6,33.8,93,29.72,0.5,NNW,3.5,-,N/A,Fog,Fog,330,2012-10-20 04:13:00
11:33 PM,37.4,35.6,93,29.72,4.0,NNW,4.6,-,N/A,,Scattered Clouds,340,2012-10-20 04:33:00
11:35 PM,37.4,35.6,93,29.72,4.0,NNW,4.6,-,N/A,,Scattered Clouds,340,2012-10-20 04:35:00
11:53 PM,35.6,33.8,93,29.73,2.5,WNW,4.6,-,N/A,,Clear,300,2012-10-20 04:53:00